Tracking 28790 objects as of 19-Apr-2024
HD Live streaming from Space Station
objects crossing your sky now

ONEWEB-0144

Track ONEWEB-0144 now!
10-day predictions
ONEWEB-0144 is classified as:


NORAD ID: 47290
Int'l Code: 2020-100AJ
Perigee: 1,219.0 km
Apogee: 1,222.7 km
Inclination: 87.9 °
Period: 109.7 minutes
Semi major axis: 7591 km
RCS: Unknown
Launch date: December 18, 2020
Source: United Kingdom (UK)
Launch site: VOSTOCHNY COSMODROME (VOSTO)
Your satellite tracking list
Your tracking list is empty




NASA's NSSDC Master Catalog

Two Line Element Set (TLE):
1 47290U 20100AJ  24109.62682758  .00000348  00000-0  93323-3 0  9993
2 47290  87.8959 147.8299 0002405 101.0162 259.1237 13.12441337161008
Source of the keplerian elements: AFSPC